DAL5742 KDCA-KLGA

Flight info

Callsign DAL5742
Flight time 0h 38m
Altitude 27000
Route DOCTR5 AGARD SPEAK PROUD2
Aircraft E170/M-SDE3GILORVW/S

Departure

Time 2026-05-07 19:12
Airport Ronald Reagan Washington National Airport (KDCA)

Arrival

Time 2026-05-07 19:51
Airport LaGuardia Airport (KLGA)
Time Latitude Longitude Altitude Speed Heading
2026-05-07 18:45 38.85233 -77.04204 22 ft 0 kts 162°
2026-05-07 19:04 38.85234 -77.04204 22 ft 2 kts 162°
2026-05-07 19:04 38.85258 -77.04214 22 ft 4 kts 162°
2026-05-07 19:04 38.85283 -77.04226 22 ft 4 kts 153°
2026-05-07 19:05 38.85286 -77.04225 22 ft 4 kts 111°
2026-05-07 19:05 38.85293 -77.04195 22 ft 4 kts 64°
2026-05-07 19:05 38.85300 -77.04173 24 ft 0 kts 72°
2026-05-07 19:08 38.85300 -77.04171 22 ft 1 kts 72°
2026-05-07 19:08 38.85307 -77.04142 22 ft 6 kts 72°
2026-05-07 19:08 38.85326 -77.04068 24 ft 11 kts 72°
2026-05-07 19:09 38.85340 -77.03958 22 ft 11 kts 99°
2026-05-07 19:09 38.85310 -77.03931 23 ft 7 kts 176°
2026-05-07 19:09 38.85240 -77.03925 22 ft 13 kts 175°
2026-05-07 19:09 38.85131 -77.03915 22 ft 18 kts 176°
2026-05-07 19:10 38.85004 -77.03902 21 ft 19 kts 174°
2026-05-07 19:10 38.84870 -77.03888 21 ft 20 kts 175°
2026-05-07 19:10 38.84729 -77.03874 22 ft 21 kts 175°
2026-05-07 19:10 38.84583 -77.03860 22 ft 22 kts 176°
2026-05-07 19:11 38.84429 -77.03845 22 ft 23 kts 176°
2026-05-07 19:11 38.84275 -77.03829 23 ft 18 kts 175°
2026-05-07 19:11 38.84209 -77.03758 23 ft 13 kts 124°
2026-05-07 19:11 38.84205 -77.03681 23 ft 9 kts 17°
2026-05-07 19:12 38.84366 -77.03698 21 ft 56 kts 356°
2026-05-07 19:12 38.85020 -77.03762 22 ft 130 kts 355°
2026-05-07 19:12 38.86012 -77.03871 497 ft 140 kts 354°
2026-05-07 19:12 38.86995 -77.04001 1086 ft 148 kts 351°
2026-05-07 19:13 38.88006 -77.04456 1472 ft 163 kts 326°
2026-05-07 19:13 38.88856 -77.05472 1974 ft 172 kts 310°
2026-05-07 19:13 38.89636 -77.06678 2480 ft 180 kts 308°
2026-05-07 19:13 38.90402 -77.08013 2907 ft 197 kts 300°
2026-05-07 19:14 38.91138 -77.09625 3328 ft 222 kts 302°
2026-05-07 19:14 38.92247 -77.11164 3809 ft 248 kts 321°
2026-05-07 19:14 38.93699 -77.12492 4463 ft 262 kts 325°
2026-05-07 19:14 38.95216 -77.13830 5310 ft 266 kts 328°
2026-05-07 19:15 38.96888 -77.14862 6119 ft 269 kts 344°
2026-05-07 19:15 38.98759 -77.14965 6930 ft 274 kts 10°
2026-05-07 19:15 39.00506 -77.13963 7660 ft 280 kts 35°
2026-05-07 19:15 39.02012 -77.12340 8380 ft 285 kts 41°
2026-05-07 19:16 39.03370 -77.10457 9022 ft 291 kts 53°
2026-05-07 19:16 39.04189 -77.08069 9650 ft 299 kts 81°
2026-05-07 19:16 39.04154 -77.05387 10252 ft 306 kts 96°
2026-05-07 19:16 39.03839 -77.02617 10596 ft 320 kts 100°
2026-05-07 19:17 39.03513 -76.99729 10993 ft 333 kts 98°
2026-05-07 19:17 39.03240 -76.96744 11522 ft 340 kts 98°
2026-05-07 19:17 39.02984 -76.93689 12097 ft 346 kts 97°
2026-05-07 19:17 39.02750 -76.90583 12732 ft 352 kts 97°
2026-05-07 19:18 39.02525 -76.87433 13412 ft 356 kts 97°
2026-05-07 19:18 39.02298 -76.84244 14067 ft 360 kts 97°
2026-05-07 19:18 39.02070 -76.81016 14748 ft 365 kts 97°
2026-05-07 19:18 39.01835 -76.77748 15433 ft 369 kts 97°
2026-05-07 19:19 39.01589 -76.74441 16089 ft 374 kts 98°
2026-05-07 19:19 39.01335 -76.71097 16741 ft 378 kts 98°
2026-05-07 19:19 39.01070 -76.67711 17379 ft 383 kts 98°
2026-05-07 19:19 39.00825 -76.64280 18005 ft 388 kts 94°
2026-05-07 19:20 39.00850 -76.60780 18610 ft 394 kts 90°
2026-05-07 19:20 39.00895 -76.57240 19246 ft 399 kts 91°
2026-05-07 19:20 39.00924 -76.53649 19863 ft 404 kts 92°
2026-05-07 19:20 39.00946 -76.50011 20520 ft 409 kts 92°
2026-05-07 19:21 39.00964 -76.46330 21148 ft 414 kts 92°
2026-05-07 19:21 39.00976 -76.42609 21751 ft 418 kts 92°
2026-05-07 19:21 39.01185 -76.38847 22284 ft 426 kts 85°
2026-05-07 19:21 39.01576 -76.35052 22819 ft 431 kts 84°
2026-05-07 19:22 39.01971 -76.31210 23337 ft 435 kts 85°
2026-05-07 19:22 39.02361 -76.27334 23838 ft 440 kts 85°
2026-05-07 19:22 39.02750 -76.23418 24329 ft 444 kts 85°
2026-05-07 19:22 39.03140 -76.19464 24812 ft 448 kts 85°
2026-05-07 19:23 39.03531 -76.15477 25298 ft 451 kts 85°
2026-05-07 19:23 39.03918 -76.11510 25742 ft 455 kts 85°
2026-05-07 19:23 39.04315 -76.07408 26209 ft 457 kts 85°
2026-05-07 19:23 39.04625 -76.03329 26611 ft 459 kts 90°
2026-05-07 19:24 39.04778 -75.99270 27000 ft 462 kts 90°
2026-05-07 19:24 39.04945 -75.95075 26989 ft 477 kts 90°
2026-05-07 19:24 39.05124 -75.90764 27007 ft 488 kts 90°
2026-05-07 19:24 39.05311 -75.86367 27024 ft 496 kts 90°
2026-05-07 19:25 39.05503 -75.81919 26961 ft 500 kts 90°
2026-05-07 19:25 39.05840 -75.77468 26916 ft 503 kts 81°
2026-05-07 19:25 39.07022 -75.73228 26916 ft 507 kts 61°
2026-05-07 19:25 39.09145 -75.69624 26915 ft 505 kts 44°
2026-05-07 19:26 39.11660 -75.66467 26914 ft 506 kts 42°
2026-05-07 19:26 39.14170 -75.63291 26903 ft 506 kts 43°
2026-05-07 19:26 39.16656 -75.60081 26897 ft 506 kts 43°
2026-05-07 19:26 39.19135 -75.56855 26892 ft 507 kts 43°
2026-05-07 19:27 39.21605 -75.53608 26896 ft 507 kts 44°
2026-05-07 19:27 39.24197 -75.50560 26912 ft 503 kts 34°
2026-05-07 19:27 39.27075 -75.47988 26891 ft 503 kts 30°
2026-05-07 19:27 39.29955 -75.45504 26545 ft 492 kts 30°
2026-05-07 19:28 39.32739 -75.43066 26133 ft 477 kts 31°
2026-05-07 19:28 39.35468 -75.40667 25427 ft 471 kts 31°
2026-05-07 19:28 39.38148 -75.38296 24784 ft 463 kts 31°
2026-05-07 19:28 39.40777 -75.35959 24137 ft 455 kts 31°
2026-05-07 19:29 39.43361 -75.33657 23536 ft 447 kts 31°
2026-05-07 19:29 39.45899 -75.31396 22944 ft 439 kts 31°
2026-05-07 19:29 39.48395 -75.29169 22367 ft 433 kts 31°
2026-05-07 19:29 39.50850 -75.26979 21931 ft 423 kts 31°
2026-05-07 19:30 39.53232 -75.24790 21594 ft 418 kts 32°
2026-05-07 19:30 39.55574 -75.22581 21426 ft 416 kts 32°
2026-05-07 19:30 39.57925 -75.20365 21249 ft 419 kts 32°
2026-05-07 19:30 39.60284 -75.18147 21059 ft 419 kts 32°
2026-05-07 19:31 39.62642 -75.15930 20855 ft 418 kts 32°
2026-05-07 19:31 39.64989 -75.13716 20659 ft 417 kts 32°
2026-05-07 19:31 39.67337 -75.11509 20363 ft 417 kts 32°
2026-05-07 19:31 39.69708 -75.09364 19949 ft 413 kts 30°
2026-05-07 19:32 39.72108 -75.07339 19411 ft 411 kts 29°
2026-05-07 19:32 39.74483 -75.05315 18846 ft 405 kts 30°
2026-05-07 19:32 39.76822 -75.03313 18286 ft 399 kts 30°
2026-05-07 19:32 39.79118 -75.01340 17768 ft 393 kts 30°
2026-05-07 19:33 39.81378 -74.99394 17248 ft 386 kts 30°
2026-05-07 19:33 39.83608 -74.97474 16737 ft 382 kts 30°
2026-05-07 19:33 39.85811 -74.95572 16224 ft 379 kts 30°
2026-05-07 19:33 39.87935 -74.93650 15731 ft 375 kts 32°
2026-05-07 19:34 39.90069 -74.91701 15230 ft 373 kts 32°
2026-05-07 19:34 39.92156 -74.89716 14740 ft 372 kts 38°
2026-05-07 19:34 39.93968 -74.87350 14269 ft 366 kts 46°
2026-05-07 19:34 39.95655 -74.84896 13758 ft 361 kts 46°
2026-05-07 19:35 39.97326 -74.82489 13283 ft 355 kts 46°
2026-05-07 19:35 39.98970 -74.80124 12821 ft 349 kts 46°
2026-05-07 19:35 40.00591 -74.77795 12355 ft 344 kts 46°
2026-05-07 19:35 40.02186 -74.75505 11911 ft 339 kts 46°
2026-05-07 19:36 40.03762 -74.73245 11452 ft 334 kts 46°
2026-05-07 19:36 40.05313 -74.71020 11012 ft 329 kts 46°
2026-05-07 19:36 40.06840 -74.68824 10574 ft 324 kts 46°
2026-05-07 19:36 40.08343 -74.66659 10165 ft 319 kts 46°
2026-05-07 19:37 40.09798 -74.64550 9971 ft 306 kts 46°
2026-05-07 19:37 40.10756 -74.63171 9851 ft 301 kts 45°
2026-05-07 19:37 40.12598 -74.60518 9865 ft 298 kts 45°
2026-05-07 19:37 40.13545 -74.59157 9878 ft 301 kts 45°
2026-05-07 19:38 40.14960 -74.57126 9880 ft 304 kts 45°
2026-05-07 19:38 40.16381 -74.55080 9875 ft 304 kts 46°
2026-05-07 19:38 40.17806 -74.53024 9872 ft 305 kts 46°
2026-05-07 19:38 40.19234 -74.50959 9867 ft 306 kts 45°
2026-05-07 19:39 40.20665 -74.48902 9871 ft 306 kts 45°
2026-05-07 19:39 40.22156 -74.46975 9874 ft 306 kts 41°
2026-05-07 19:39 40.23699 -74.45066 9869 ft 305 kts 41°
2026-05-07 19:39 40.25236 -74.43150 9871 ft 306 kts 41°
2026-05-07 19:40 40.26774 -74.41230 9868 ft 305 kts 41°
2026-05-07 19:40 40.28305 -74.39311 9869 ft 305 kts 41°
2026-05-07 19:40 40.29837 -74.37383 9868 ft 305 kts 41°
2026-05-07 19:40 40.31363 -74.35452 9870 ft 305 kts 41°
2026-05-07 19:41 40.32890 -74.33522 9874 ft 305 kts 41°
2026-05-07 19:41 40.34419 -74.31586 9874 ft 306 kts 41°
2026-05-07 19:41 40.35949 -74.29650 9865 ft 306 kts 41°
2026-05-07 19:41 40.37484 -74.27697 9718 ft 307 kts 42°
2026-05-07 19:42 40.39009 -74.25768 9623 ft 304 kts 41°
2026-05-07 19:42 40.40531 -74.23845 9402 ft 305 kts 41°
2026-05-07 19:42 40.42053 -74.21902 9044 ft 304 kts 42°
2026-05-07 19:42 40.43558 -74.19976 8700 ft 300 kts 41°
2026-05-07 19:43 40.45053 -74.18072 8264 ft 298 kts 41°
2026-05-07 19:43 40.46536 -74.16187 7854 ft 295 kts 41°
2026-05-07 19:43 40.47997 -74.14327 7465 ft 290 kts 41°
2026-05-07 19:43 40.49431 -74.12500 7085 ft 285 kts 41°
2026-05-07 19:44 40.50847 -74.10700 6695 ft 281 kts 42°
2026-05-07 19:44 40.52244 -74.08929 6350 ft 276 kts 40°
2026-05-07 19:44 40.53799 -74.07512 5988 ft 270 kts 28°
2026-05-07 19:44 40.55400 -74.06258 5620 ft 267 kts 30°
2026-05-07 19:45 40.56968 -74.04979 5286 ft 262 kts 30°
2026-05-07 19:45 40.58477 -74.03732 5104 ft 254 kts 30°
2026-05-07 19:45 40.59963 -74.02494 4768 ft 252 kts 31°
2026-05-07 19:45 40.61435 -74.01257 4452 ft 250 kts 31°
2026-05-07 19:46 40.62903 -74.00024 4077 ft 251 kts 31°
2026-05-07 19:46 40.64352 -73.98799 3740 ft 244 kts 31°
2026-05-07 19:46 40.65735 -73.97631 3401 ft 228 kts 31°
2026-05-07 19:46 40.67014 -73.96542 3088 ft 212 kts 32°
2026-05-07 19:47 40.68220 -73.95497 2854 ft 203 kts 32°
2026-05-07 19:47 40.69410 -73.94470 2564 ft 199 kts 32°
2026-05-07 19:47 40.70484 -73.93427 2327 ft 193 kts 44°
2026-05-07 19:47 40.71344 -73.92101 2173 ft 187 kts 51°
2026-05-07 19:48 40.72138 -73.90830 2114 ft 168 kts 52°
2026-05-07 19:48 40.72480 -73.89445 1892 ft 155 kts 83°
2026-05-07 19:48 40.72571 -73.88057 1619 ft 151 kts 83°
2026-05-07 19:48 40.72654 -73.86711 1393 ft 146 kts 83°
2026-05-07 19:49 40.72784 -73.85417 1169 ft 143 kts 73°
2026-05-07 19:49 40.73168 -73.84228 1051 ft 137 kts 53°
2026-05-07 19:49 40.73828 -73.83341 851 ft 138 kts 31°
2026-05-07 19:49 40.74702 -73.82878 680 ft 135 kts
2026-05-07 19:50 40.75604 -73.83103 580 ft 134 kts 330°
2026-05-07 19:50 40.76290 -73.83931 403 ft 135 kts 310°
2026-05-07 19:50 40.76834 -73.84953 209 ft 137 kts 304°
2026-05-07 19:50 40.77338 -73.86001 26 ft 132 kts 304°
2026-05-07 19:51 40.77779 -73.86906 13 ft 100 kts 303°
2026-05-07 19:51 40.78052 -73.87485 12 ft 43 kts 300°
2026-05-07 19:51 40.78173 -73.87737 16 ft 28 kts 306°
2026-05-07 19:51 40.78192 -73.87843 17 ft 8 kts 208°
2026-05-07 19:52 40.78127 -73.87853 17 ft 10 kts 165°
2026-05-07 19:52 40.78085 -73.87780 16 ft 12 kts 122°
2026-05-07 19:52 40.78033 -73.87675 13 ft 15 kts 122°
2026-05-07 19:52 40.77972 -73.87548 14 ft 17 kts 122°
2026-05-07 19:53 40.77905 -73.87406 15 ft 20 kts 122°
2026-05-07 19:53 40.77828 -73.87242 12 ft 22 kts 123°
2026-05-07 19:53 40.77742 -73.87067 12 ft 24 kts 122°
2026-05-07 19:53 40.77652 -73.86874 10 ft 26 kts 121°
2026-05-07 19:54 40.77553 -73.86670 11 ft 27 kts 123°
2026-05-07 19:54 40.77454 -73.86462 10 ft 25 kts 121°
2026-05-07 19:54 40.77360 -73.86262 11 ft 26 kts 123°
2026-05-07 19:54 40.77258 -73.86054 12 ft 28 kts 122°
2026-05-07 19:55 40.77191 -73.85914 12 ft 15 kts 121°
2026-05-07 19:55 40.77151 -73.85854 10 ft 4 kts 184°
2026-05-07 19:55 40.77102 -73.85876 10 ft 10 kts 216°
2026-05-07 19:55 40.77054 -73.85899 14 ft 4 kts 165°
2026-05-07 19:56 40.77024 -73.85889 16 ft 5 kts 165°
2026-05-07 19:56 40.76974 -73.85878 17 ft 10 kts 184°
2026-05-07 19:56 40.76919 -73.85882 17 ft 6 kts 139°
2026-05-07 19:56 40.76910 -73.85871 17 ft 1 kts 129°
2026-05-07 19:57 40.76902 -73.85858 17 ft 0 kts 131°